Theta_e
346 345 346 345 344 348 348 351 354 358 357 356 356 356 358 355 355 358 358 356 356 356 356 356 356 358 354 355 356 356 355 353 351
343 346 347 345 344 347 349 349 353 358 358 357 356 356 360 360 357 356 359 357 356 353 355 357 354 352 354 357 358 357 356 356 353
345 343 347 346 345 347 348 349 353 357 357 356 357 358 357 361 361 358 358 360 358 354 356 355 356 354 354 360 360 359 356 357 354
341 344 346 346 345 348 347 348 356 359 361 360 361 363 362 362 363 362 359 361 361 355 358 359 357 358 359 360 359 358 357 356 357
343 343 343 341 345 347 346 349 356 359 361 361 361 362 363 363 363 363 357 360 360 359 355 354 357 360 360 360 362 360 358 358 357
339 342 346 343 337 346 346 348 351 359 359 359 361 363 363 362 362 362 353 360 358 361 359 357 356 358 359 361 360 363 362 360 359
341 339 342 339 336 346 349 352 354 356 357 359 362 362 361 362 363 362 362 362 361 357 359 361 360 359 360 361 361 362 362 364 362
349 344 340 340 352 355 357 359 358 358 358 361 361 359 356 350 349 348 350 356 355 354 359 360 360 361 362 364 364 364 364 363 358
351 350 354 363 364 364 364 363 364 362 361 360 359 354 355 353 352 351 355 358 360 357 358 361 361 361 362 364 363 363 360 355 339
351 358 360 362 363 363 363 365 364 361 359 358 356 358 358 356 356 358 359 359 361 364 364 363 363 362 362 362 362 362 363 356 349
355 361 360 359 361 363 365 363 363 362 362 361 360 357 358 360 361 362 363 363 363 363 363 364 366 363 362 360 358 357 361 362 356
356 358 357 357 362 363 363 364 365 363 362 362 363 363 362 364 365 365 363 363 361 355 353 353 350 352 353 348 351 357 355 357 355
345 359 359 360 362 364 366 367 365 365 366 369 370 368 365 364 364 359 352 350 350 350 351 349 353 349 349 348 348 351 351 350 353
352 344 353 359 360 362 364 366 366 367 368 366 362 361 358 351 349 347 347 348 351 351 349 347 350 350 349 345 343 343 347 355 353
343 347 342 353 356 357 359 361 362 361 359 359 359 356 350 348 347 347 350 353 349 346 348 350 350 352 345 339 343 345 346 355 352
334 335 344 347 354 354 354 354 355 358 358 356 352 350 350 349 348 349 348 347 350 351 349 352 347 346 341 341 343 345 344 342 343
339 345 349 352 352 353 355 352 356 357 357 351 350 351 350 350 349 349 349 349 350 350 350 341 338 338 339 343 345 346 342 342 344
345 349 350 352 351 356 362 362 362 360 358 358 358 360 356 353 352 352 351 349 348 342 337 338 338 339 340 343 338 332 331 331 331
351 348 343 341 338 344 360 358 357 359 357 357 355 357 351 349 345 342 341 342 339 338 337 334 333 332 332 331 330 330 329 328 327
358 350 346 338 335 354 349 338 354 354 354 353 352 348 347 342 342 340 340 338 338 339 332 332 333 332 329 327 327 326 325 325 326
Wind_Speed
8 11 16 18 13 28 27 36 35 35 38 35 36 31 29 25 24 16 12 9 9 3 13 17 12 15 10 8 10 11 8 7 5
9 10 16 16 12 29 26 32 34 37 38 37 36 34 28 25 21 21 15 12 12 11 6 14 15 19 12 12 16 11 11 9 11
17 15 17 17 13 29 29 32 32 38 40 39 35 32 31 24 21 19 19 14 15 16 16 16 11 11 12 15 18 14 12 12 11
30 25 15 15 16 30 33 34 34 36 35 33 31 28 24 22 19 17 19 20 11 18 11 14 14 13 16 18 17 17 15 16 17
13 12 19 11 9 28 32 33 32 35 34 33 29 26 21 23 21 21 19 18 18 15 17 16 13 14 16 16 18 18 19 21 20
15 21 37 29 13 12 28 31 30 32 33 30 26 22 19 27 25 24 14 16 17 16 17 15 17 18 19 20 22 23 24 26 23
21 20 38 27 7 11 22 28 33 34 31 28 27 24 20 23 23 21 20 15 20 17 16 17 19 21 21 23 25 26 27 27 25
12 14 11 13 11 14 22 23 27 31 29 30 27 22 16 15 16 14 16 18 16 13 13 13 16 18 19 21 24 26 30 30 15
8 7 15 17 18 17 21 26 27 31 30 27 22 15 16 15 13 12 10 10 11 12 12 13 15 18 19 21 24 26 25 13 39
10 14 17 17 17 15 22 25 30 30 25 21 20 18 15 12 12 12 11 10 9 10 10 10 11 12 13 17 18 17 20 6 21
13 17 17 16 15 20 24 29 30 28 25 22 19 16 16 14 13 11 11 10 7 4 4 6 7 9 12 15 17 13 13 11 13
5 17 14 18 26 27 29 29 30 28 24 23 21 19 18 16 14 13 10 8 5 2 2 6 7 10 11 12 16 15 12 14 14
19 3 20 22 26 28 28 29 30 29 27 25 23 20 17 14 12 11 8 6 2 1 4 8 10 16 14 18 23 21 20 14 14
28 20 29 29 29 24 24 27 28 25 25 23 21 18 15 14 11 9 5 3 1 4 9 13 15 17 17 15 18 22 26 26 21
12 25 38 27 26 25 26 25 25 23 22 21 22 20 16 13 9 6 7 4 3 8 11 13 17 16 6 15 19 20 21 12 10
18 34 34 28 27 27 26 25 24 24 24 24 23 19 17 12 9 5 4 4 6 10 15 17 8 4 12 13 14 12 18 19 13
16 26 17 27 29 26 25 26 20 23 25 26 22 19 16 11 7 6 7 7 10 13 14 8 9 9 9 10 13 10 19 16 13
11 12 22 26 28 23 19 27 27 24 21 18 13 13 13 7 4 4 4 3 7 6 12 14 10 14 15 17 21 22 24 25 25
20 19 25 24 17 20 23 19 19 17 14 12 10 9 9 7 6 7 8 10 12 13 16 21 22 19 15 17 20 22 24 26 27
26 20 17 22 23 20 25 30 14 17 12 11 9 7 6 8 9 12 15 13 12 13 16 19 20 15 21 25 26 29 31 29 26
Wind_Direction
194 191 183 182 183 174 174 174 176 178 186 190 197 201 208 214 216 214 220 209 200 238 237 217 190 206 210 218 214 209 219 223 232
249 209 178 176 172 169 172 172 172 176 183 192 199 202 206 210 216 216 217 220 227 227 207 185 193 207 203 220 221 214 216 227 226
230 244 170 178 167 169 167 172 173 179 185 192 201 204 208 206 215 220 219 225 238 231 209 204 193 188 198 215 213 220 221 228 228
221 218 175 171 173 166 161 165 167 173 180 187 195 201 200 200 206 217 222 224 228 214 214 204 204 201 202 212 222 230 230 231 230
145 89 45 346 189 161 159 159 160 169 175 184 192 192 191 196 199 212 213 229 232 229 237 243 227 213 219 225 230 236 239 237 235
116 128 134 223 237 191 158 157 159 163 173 180 182 183 191 192 199 207 218 217 222 226 234 238 239 240 240 241 241 239 242 240 239
149 161 174 202 170 199 148 150 159 164 167 172 173 178 170 172 182 194 206 201 208 222 239 237 239 241 243 246 248 247 246 248 240
130 169 188 180 168 143 133 137 145 154 157 163 167 167 174 186 199 204 219 222 222 233 241 244 247 247 251 256 258 259 256 254 239
144 122 119 125 122 125 133 136 138 140 143 145 154 157 156 140 160 186 201 207 210 233 246 256 261 260 262 266 271 272 276 297 97
150 126 130 126 126 127 129 130 134 135 142 152 153 144 150 174 187 194 207 215 232 247 259 265 273 284 285 285 288 296 291 253 193
130 134 131 123 125 124 126 135 140 146 146 143 151 171 182 189 198 200 209 216 210 220 253 276 287 293 297 298 300 309 294 288 233
163 139 138 131 132 135 139 144 145 145 149 157 162 176 185 177 188 185 178 192 190 161 281 288 296 302 308 320 307 306 289 288 278
351 82 133 132 130 134 136 143 149 149 159 163 165 158 160 161 164 148 132 126 124 3 313 309 309 315 328 329 324 315 294 275 263
305 339 316 126 125 130 138 147 153 153 159 156 152 151 145 137 134 137 148 154 171 316 311 315 316 320 334 353 4 351 334 283 259
241 279 301 116 120 130 146 149 151 147 151 154 152 151 144 142 146 142 188 183 282 307 304 302 309 311 352 1 11 1 5 2 283
219 244 243 134 134 142 149 152 158 165 162 160 157 154 154 156 157 176 217 259 293 295 302 303 325 32 4 360 4 1 15 11 356
177 225 163 141 145 154 154 167 178 182 164 162 159 159 157 164 178 233 260 269 275 290 321 31 18 353 340 349 7 20 6 11 357
213 196 147 141 131 128 129 132 132 138 145 149 161 164 153 174 223 271 339 310 309 46 35 22 359 15 21 25 33 31 24 15 9
199 138 143 138 109 95 106 84 101 123 131 131 122 115 95 80 58 35 26 45 65 47 45 71 46 40 44 52 34 21 10 2 356
107 122 130 116 116 113 141 168 113 107 108 107 94 76 62 70 61 57 75 44 37 49 47 42 33 61 51 33 20 11 8 10 1